Fort George G Meade, MD

5:37 AM EST on February 26, 2017 (GMT -0500)
Tipton

Weather History for KFME - August, 2013

Change the Weather History Date:

Monday, August 19, 2013

  Actual Average (KBWI) Record (KBWI)
Temperature  
Mean Temperature 66 °F -  
Max Temperature 73 °F 83 °F 97 °F (1914)
Min Temperature 59 °F 65 °F 52 °F (1958)
Cooling Degree Days 1    
Growing Degree Days 16 (Base 50)    
Moisture  
Dew Point 61 °F    
Average Humidity 84    
Maximum Humidity 100    
Minimum Humidity 69    
Precipitation  
Precipitation 0.00 in - - ()
Sea Level Pressure  
Sea Level Pressure 30.15 in    
Wind  
Wind Speed 1 mph (SW)    
Max Wind Speed 7 mph    
Max Gust Speed -    
Visibility 8 miles    
Events      
Averages and records for this station are not official NWS values.
T = Trace of Precipitation, MM = Missing Value Source: NWS Daily Summary

Daily Weather History Graph

Daily Weather History Graph

Search for Another Location

Airport or City:

Trip Planner

Search our weather history database for the weather conditions in past years. The results will help you decide how hot, cold, wet, or windy it might be!

Date:

Astronomy

Aug. 19, 2013 Rise Set
Actual Time 6:24 AM EDT 7:56 PM EDT
Civil Twilight 5:55 AM EDT 8:24 PM EDT
Nautical Twilight 5:21 AM EDT 8:58 PM EDT
Astronomical Twilight 4:45 AM EDT 9:34 PM EDT
Moon 6:45 PM EDT (8/19) 4:41 AM EDT (8/19)
Length of Visible Light 14h 28m
Length of Day
13h 32m
Waxing Gibbous, 97% of the Moon is Illuminated
Aug 19
Waxing Gibbous
Aug 20
Full
Aug 28
Last Quarter
Sep 5
New
Sep 12
First Quarter

Hourly Weather History & Observations

Time (EDT) Temp. Dew Point Humidity Pressure Visibility Wind Dir Wind Speed Gust Speed Precip Events Conditions
12:00 AM 62.6 °F 60.8 °F 94% 30.21 in 7.0 mi Calm Calm - N/A   Mostly Cloudy
12:21 AM 62.6 °F 60.8 °F 94% 30.21 in 7.0 mi Calm Calm - N/A   Scattered Clouds
12:42 AM 60.8 °F 60.8 °F 100% 30.20 in 7.0 mi Calm Calm - N/A   Clear
1:00 AM 60.8 °F 59.0 °F 94% 30.20 in 5.0 mi Calm Calm - N/A   Clear
1:21 AM 60.8 °F 59.0 °F 94% 30.20 in 5.0 mi Calm Calm - N/A   Clear
1:42 AM 60.8 °F 59.0 °F 94% 30.20 in 5.0 mi Calm Calm - N/A   Clear
2:00 AM 60.8 °F 59.0 °F 94% 30.20 in 4.0 mi Calm Calm - N/A   Clear
2:21 AM 60.8 °F 59.0 °F 94% 30.19 in 5.0 mi Calm Calm - N/A   Clear
2:42 AM 59.0 °F 59.0 °F 100% 30.19 in 5.0 mi Calm Calm - N/A   Clear
3:00 AM 59.0 °F 57.2 °F 94% 30.19 in 5.0 mi Calm Calm - N/A   Clear
3:21 AM 59.0 °F 57.2 °F 94% 30.19 in 5.0 mi Calm Calm - N/A   Clear
3:42 AM 59.0 °F 57.2 °F 94% 30.18 in 5.0 mi Calm Calm - N/A   Clear
4:03 AM 59.0 °F 55.4 °F 88% 30.18 in 4.0 mi Calm Calm - N/A   Clear
4:21 AM 59.0 °F 55.4 °F 88% 30.19 in 5.0 mi Calm Calm - N/A   Clear
4:42 AM 59.0 °F 55.4 °F 88% 30.17 in 5.0 mi Calm Calm - N/A   Clear
5:03 AM 59.0 °F 55.4 °F 88% 30.17 in 5.0 mi Calm Calm - N/A   Clear
5:21 AM 59.0 °F 57.2 °F 94% 30.17 in 5.0 mi Calm Calm - N/A   Clear
5:42 AM 59.0 °F 57.2 °F 94% 30.18 in 5.0 mi Calm Calm - N/A   Clear
6:03 AM 59.0 °F 57.2 °F 94% 30.18 in 5.0 mi Calm Calm - N/A   Scattered Clouds
6:21 AM 59.0 °F 57.2 °F 94% 30.18 in 7.0 mi Calm Calm - N/A   Scattered Clouds
6:42 AM 59.0 °F 57.2 °F 94% 30.18 in 3.0 mi Calm Calm - N/A   Clear
7:03 AM 59.0 °F 57.2 °F 94% 30.18 in 4.0 mi Calm Calm - N/A   Scattered Clouds
7:21 AM 59.0 °F 59.0 °F 100% 30.18 in 4.0 mi Calm Calm - N/A   Mostly Cloudy
7:42 AM 60.8 °F 59.0 °F 94% 30.19 in 4.0 mi Calm Calm - N/A   Mostly Cloudy
8:03 AM 60.8 °F 60.8 °F 100% 30.18 in 7.0 mi Calm Calm - N/A   Scattered Clouds
8:21 AM 64.4 °F 62.6 °F 94% 30.18 in 7.0 mi Calm Calm - N/A   Clear
8:42 AM 64.4 °F 62.6 °F 94% 30.18 in 10.0 mi SSW 3.5 mph - N/A   Clear
9:03 AM 66.2 °F 62.6 °F 88% 30.19 in 10.0 mi WSW 3.5 mph - N/A   Scattered Clouds
9:21 AM 68.0 °F 62.6 °F 83% 30.18 in 10.0 mi SW 3.5 mph - N/A   Mostly Cloudy
9:42 AM 69.8 °F 62.6 °F 78% 30.18 in 10.0 mi WSW 5.8 mph - N/A   Overcast
10:03 AM 69.8 °F 62.6 °F 78% 30.17 in 10.0 mi SW 3.5 mph - N/A   Overcast
10:21 AM 69.8 °F 60.8 °F 73% 30.17 in 10.0 mi South 4.6 mph - N/A   Mostly Cloudy
10:42 AM 69.8 °F 60.8 °F 73% 30.17 in 10.0 mi SW 3.5 mph - N/A   Scattered Clouds
11:03 AM 69.8 °F 60.8 °F 73% 30.16 in 10.0 mi SW 4.6 mph - N/A   Scattered Clouds
11:21 AM 71.6 °F 60.8 °F 69% 30.16 in 10.0 mi WSW 3.5 mph - N/A   Clear
11:42 AM 71.6 °F 62.6 °F 73% 30.16 in 10.0 mi WSW 3.5 mph - N/A   Clear
12:03 PM 71.6 °F 62.6 °F 73% 30.15 in 10.0 mi SSW 3.5 mph - N/A   Clear
12:21 PM 71.6 °F 62.6 °F 73% 30.15 in 10.0 mi West 4.6 mph - N/A   Clear
12:42 PM 71.6 °F 62.6 °F 73% 30.15 in 10.0 mi WSW 4.6 mph - N/A   Clear
1:03 PM 71.6 °F 62.6 °F 73% 30.15 in 10.0 mi SSW 4.6 mph - N/A   Mostly Cloudy
1:24 PM 71.6 °F 62.6 °F 73% 30.14 in 10.0 mi WSW 5.8 mph - N/A   Mostly Cloudy
1:42 PM 73.4 °F 62.6 °F 69% 30.14 in 10.0 mi SSW 5.8 mph - N/A   Scattered Clouds
2:03 PM 73.4 °F 64.4 °F 73% 30.14 in 10.0 mi South 5.8 mph - N/A   Scattered Clouds
2:24 PM 73.4 °F 62.6 °F 69% 30.13 in 10.0 mi South 5.8 mph - N/A   Mostly Cloudy
2:42 PM 73.4 °F 62.6 °F 69% 30.13 in 10.0 mi SW 5.8 mph - N/A   Mostly Cloudy
3:03 PM 73.4 °F 62.6 °F 69% 30.12 in 10.0 mi SSW 6.9 mph - N/A   Mostly Cloudy
3:24 PM 73.4 °F 62.6 °F 69% 30.12 in 10.0 mi SSW 4.6 mph - N/A   Overcast
3:42 PM 73.4 °F 62.6 °F 69% 30.11 in 10.0 mi SSW 5.8 mph - N/A   Overcast
4:03 PM 71.6 °F 62.6 °F 73% 30.11 in 10.0 mi WSW 4.6 mph - N/A   Overcast
4:24 PM 71.6 °F 62.6 °F 73% 30.12 in 10.0 mi WSW 5.8 mph - N/A   Overcast
4:42 PM 73.4 °F 62.6 °F 69% 30.11 in 10.0 mi SW 4.6 mph - N/A   Overcast
5:03 PM 73.4 °F 64.4 °F 73% 30.11 in 10.0 mi SW 5.8 mph - N/A   Scattered Clouds
5:24 PM 73.4 °F 62.6 °F 69% 30.11 in 10.0 mi SW 3.5 mph - N/A   Mostly Cloudy
5:42 PM 73.4 °F 64.4 °F 73% 30.11 in 10.0 mi WSW 4.6 mph - N/A   Mostly Cloudy
6:03 PM 71.6 °F 64.4 °F 78% 30.11 in 10.0 mi SW 3.5 mph - N/A   Scattered Clouds
6:21 PM 71.6 °F 64.4 °F 78% 30.11 in 10.0 mi SSW 3.5 mph - N/A   Scattered Clouds
6:42 PM 71.6 °F 64.4 °F 78% 30.10 in 10.0 mi Calm Calm - N/A   Clear
7:03 PM 71.6 °F 64.4 °F 78% 30.11 in 10.0 mi SW 3.5 mph - N/A   Clear
7:24 PM 71.6 °F 64.4 °F 78% 30.11 in 10.0 mi SSW 3.5 mph - N/A   Clear
7:42 PM 69.8 °F 66.2 °F 88% 30.11 in 10.0 mi South 3.5 mph - N/A   Mostly Cloudy
8:03 PM 69.8 °F 64.4 °F 83% 30.10 in 10.0 mi South 4.6 mph - N/A   Scattered Clouds
8:24 PM 68.0 °F 64.4 °F 88% 30.10 in 10.0 mi South 3.5 mph - N/A   Clear
8:42 PM 68.0 °F 62.6 °F 83% 30.11 in 10.0 mi SSW 3.5 mph - N/A   Clear
9:03 PM 66.2 °F 62.6 °F 88% 30.11 in 10.0 mi South 3.5 mph - N/A   Clear
9:24 PM 64.4 °F 62.6 °F 94% 30.12 in 10.0 mi Calm Calm - N/A   Clear
9:45 PM 64.4 °F 62.6 °F 94% 30.13 in 7.0 mi Calm Calm - N/A   Clear
10:03 PM 64.4 °F 62.6 °F 94% 30.13 in 7.0 mi Calm Calm - N/A   Clear
10:24 PM 62.6 °F 60.8 °F 94% 30.13 in 7.0 mi Calm Calm - N/A   Clear
10:45 PM 62.6 °F 60.8 °F 94% 30.13 in 7.0 mi Calm Calm - N/A   Clear
11:03 PM 62.6 °F 60.8 °F 94% 30.14 in 5.0 mi Calm Calm - N/A   Clear
11:24 PM 62.6 °F 60.8 °F 94% 30.14 in 5.0 mi Calm Calm - N/A   Clear
11:45 PM 62.6 °F 60.8 °F 94% 30.14 in 7.0 mi Calm Calm - N/A   Clear